RH
82 72 45 29 44 46 47 58 52 42 64 72 66 49 46 36 36 40 35 42 31 36 39 35 43 42 39 33 40 49 42 39 40 40 32 36 56 60 54 49 47 41 31 39 43 46 54 50 41
67 79 38 18 54 78 59 54 17 64 60 41 31 52 39 43 44 34 35 32 41 38 38 41 46 44 55 46 41 51 48 47 47 48 49 46 42 37 36 40 42 47 43 30 39 43 48 57 55
58 68 30 41 39 55 57 31 17 8 10 25 27 34 34 41 41 40 34 38 48 41 42 46 50 50 53 68 40 48 46 38 46 48 47 42 42 54 60 47 36 37 41 40 35 40 42 44 47
82 52 47 27 54 52 43 22 20 14 23 11 17 36 32 33 49 42 44 49 50 44 44 48 53 59 53 62 74 68 76 69 40 48 53 49 45 46 51 51 45 41 40 41 41 40 38 46 47
96 81 67 57 61 57 66 58 43 25 30 36 16 9 24 34 33 40 47 47 48 45 45 45 51 66 55 59 62 74 74 68 68 63 68 68 65 63 54 53 55 48 44 45 43 44 50 53 55
96 69 58 62 49 66 66 59 66 58 31 29 36 18 10 15 21 33 39 50 46 42 44 44 46 61 61 62 59 54 51 52 58 64 70 74 76 74 80 63 47 49 47 49 53 50 55 58 50
51 93 51 18 24 45 71 73 65 40 25 26 31 35 26 15 19 32 36 36 35 39 42 46 45 51 64 64 57 46 48 48 47 49 56 66 69 64 69 72 65 50 47 44 47 53 56 55 58
89 74 33 12 14 33 61 53 65 50 33 24 31 33 39 35 23 15 22 22 33 38 37 48 45 46 52 61 54 53 52 59 67 67 68 63 67 68 57 68 75 77 63 61 60 63 66 63 64
83 41 28 43 38 76 78 71 60 37 25 19 31 43 34 38 41 29 18 20 23 28 45 43 41 42 44 55 56 56 52 56 73 78 75 74 72 71 68 71 73 67 72 70 66 73 73 70 60
83 75 44 50 42 46 61 57 47 56 49 21 28 50 51 42 37 43 51 35 21 28 30 49 36 33 41 43 52 54 51 52 59 68 71 72 73 71 77 74 60 58 52 61 62 60 65 69 64
52 92 72 57 49 36 31 64 75 68 79 54 18 25 57 56 61 63 50 57 50 30 21 28 42 33 37 34 37 47 46 46 49 56 61 67 93 88 84 80 65 57 60 63 69 71 77 76 61
53 89 78 65 74 60 41 64 66 62 81 46 49 21 35 49 57 62 73 70 66 51 30 23 30 40 36 36 33 37 37 41 51 55 59 72 99 97 89 87 70 75 84 81 81 82 84 82 79
36 45 79 66 67 63 49 66 70 62 49 64 70 49 46 52 49 70 81 78 72 64 46 28 26 30 40 37 31 34 32 31 44 47 48 62 86 96 96 86 81 88 91 92 80 82 87 87 86
33 62 91 89 71 66 67 42 60 63 50 73 49 36 54 64 54 53 84 79 80 75 64 41 30 25 42 42 34 32 30 28 31 36 36 40 51 69 96 98 94 97 91 94 85 87 91 88 83
34 68 88 82 72 68 54 61 36 78 70 68 68 36 31 61 29 44 90 95 98 97 64 62 46 25 23 28 32 35 36 28 23 27 30 43 42 39 56 73 97 97 96 88 75 84 82 85 84
42 63 81 84 64 73 37 45 32 66 84 31 53 29 31 21 18 36 95 96 84 97 97 70 72 60 55 36 37 45 41 37 49 63 60 51 55 64 39 42 55 85 96 86 86 89 77 70 79
37 62 89 96 84 62 54 84 48 45 71 67 58 54 41 14 14 35 73 96 94 88 97 84 80 69 62 44 32 34 44 48 47 39 42 48 61 87 81 60 60 67 85 89 91 96 89 85 89
34 47 81 94 84 77 65 84 64 54 62 75 47 56 43 15 15 26 41 74 89 94 83 95 95 94 94 75 65 78 78 71 80 73 62 69 68 83 87 72 78 76 89 95 95 87 76 85 88
51 43 76 78 99 89 74 79 75 59 72 52 53 64 65 55 16 16 24 41 63 69 91 92 90 91 93 95 73 68 88 70 99 98 89 88 91 84 62 59 44 41 68 89 96 78 91 84 76
30 52 80 77 100 80 93 78 73 64 73 56 47 59 66 80 30 14 20 26 30 42 32 30 48 53 52 42 47 67 91 90 92 40 55 79 35 38 56 84 70 46 58 92 73 73 85 60 36
33 88 73 85 86 93 98 74 46 70 73 72 43 53 61 77 42 22 12 18 20 30 34 31 31 22 30 45 59 56 89 71 46 33 25 55 36 54 84 87 88 82 80 80 68 57 63 68 58
62 95 75 88 82 92 88 94 56 72 60 73 57 55 68 65 43 29 40 12 17 24 25 20 20 22 22 38 56 59 41 33 44 45 30 21 28 43 38 62 70 70 63 56 52 45 38 70 72
65 73 78 76 93 96 95 86 63 55 46 78 69 57 50 61 58 56 53 22 13 18 21 21 16 18 22 21 25 25 22 16 24 23 17 9 14 8 7 8 13 14 16 19 20 18 23 36 44
96 91 69 51 88 79 91 90 58 50 46 62 67 72 52 63 65 48 38 44 38 18 17 16 13 14 15 16 19 23 29 29 22 21 14 8 6 6 6 5 5 5 5 5 5 10 14 20 16
50 83 78 84 90 82 78 90 71 57 43 54 66 49 38 44 51 51 34 33 45 42 18 17 15 15 16 18 17 18 23 31 44 48 21 12 10 6 5 5 5 5 6 9 11 11 11 11 10
86 60 62 66 89 75 82 92 65 44 58 60 59 53 57 42 47 45 40 34 28 43 30 20 16 17 20 21 30 41 44 43 47 43 44 44 13 11 10 8 9 10 10 11 11 11 10 10 10
71 49 58 80 75 80 84 65 71 57 60 69 55 53 54 63 36 29 42 34 28 29 27 24 20 23 34 38 36 36 35 35 44 53 48 48 50 20 11 11 11 11 10 10 10 10 9 10 11
64 68 74 79 67 74 64 48 69 80 77 73 64 59 57 41 39 52 44 38 36 37 33 30 37 38 39 41 46 45 51 45 38 44 61 82 85 55 18 12 10 9 10 15 10 14 17 14 22
69 72 76 78 80 82 60 52 73 71 62 66 71 56 58 74 88 75 54 37 41 36 47 54 48 33 38 53 54 55 50 47 44 44 53 86 80 68 48 36 20 15 22 21 27 32 33 34 33
52 56 66 77 70 71 43 42 72 64 70 55 55 50 60 70 75 79 53 51 55 52 60 59 43 38 45 50 59 63 60 57 58 53 57 50 69 69 60 48 33 26 37 44 43 41 44 40 37
Wind_Speed
14 17 16 16 16 11 11 18 12 3 11 14 9 7 8 8 5 5 7 8 10 9 12 11 12 15 17 16 15 15 14 13 11 11 9 8 8 9 12 12 11 10 8 7 8 8 8 7 9
14 14 18 18 22 14 15 14 19 6 7 7 7 8 6 9 7 6 6 7 7 8 11 10 12 13 15 16 15 15 14 14 13 11 12 13 10 9 9 9 6 6 7 6 6 8 8 8 8
20 13 23 22 20 22 21 19 13 13 10 4 6 7 4 4 5 4 7 6 6 8 11 10 11 11 12 13 14 15 14 13 14 14 14 14 13 11 8 7 6 5 6 6 3 4 5 7 6
14 17 24 24 23 23 24 22 15 14 15 13 8 3 1 1 0 2 5 5 5 7 10 10 10 10 10 11 13 13 13 12 13 13 14 14 13 12 10 8 7 7 7 8 7 6 5 6 6
16 17 24 24 22 17 21 20 19 19 15 12 9 5 0 2 3 3 1 3 1 4 7 8 8 9 9 10 11 11 10 11 10 11 11 10 11 11 11 9 7 7 8 8 9 9 8 7 7
17 13 21 19 22 22 20 20 19 17 17 13 10 7 4 1 2 2 1 2 2 1 4 6 6 7 8 9 8 7 7 7 6 6 6 7 7 6 7 8 8 7 7 6 7 7 8 9 7
9 15 19 18 18 18 19 18 16 18 19 15 11 7 5 2 4 3 2 2 3 2 3 4 5 6 7 7 6 6 5 4 4 3 3 4 5 5 5 5 7 8 8 7 6 6 6 8 8
9 12 15 20 19 18 19 17 17 17 20 18 13 9 5 3 4 3 3 3 3 2 4 5 4 4 5 4 3 4 5 5 5 3 3 3 3 3 3 4 6 4 6 7 7 6 7 7 6
12 16 18 23 22 19 15 17 19 24 22 17 16 12 6 4 3 1 2 2 3 3 4 5 5 5 5 4 4 4 4 3 5 3 3 4 5 2 1 2 2 2 3 6 7 7 7 6 6
13 17 17 18 19 16 13 21 20 28 29 21 16 12 7 6 6 4 3 3 3 2 4 6 5 6 6 5 5 4 3 2 0 3 4 7 7 7 3 1 0 1 3 4 6 6 6 7 6
3 13 13 16 18 20 18 20 23 31 30 22 18 14 8 10 11 8 2 4 3 5 6 7 6 7 8 7 7 6 5 2 2 3 6 7 7 4 8 3 2 3 5 6 7 8 7 7 8
3 5 5 10 14 20 25 23 28 33 25 18 19 18 8 7 9 8 3 5 7 9 9 8 8 7 6 6 6 6 5 3 5 5 4 8 8 7 8 1 1 3 7 8 8 8 10 9 10
8 5 6 5 9 17 23 24 27 31 25 20 15 12 15 9 7 6 2 4 11 10 10 10 9 8 6 5 5 4 6 3 7 8 4 6 5 3 6 5 3 6 7 6 8 9 10 9 11
9 6 5 4 7 12 16 21 23 25 23 19 19 12 11 12 11 8 9 6 8 2 7 8 8 10 8 6 6 5 4 5 7 5 7 6 6 6 5 4 5 8 9 9 8 6 6 7 9
4 9 8 4 6 7 12 17 23 23 21 16 15 16 15 8 11 10 8 6 4 8 3 7 8 7 8 6 6 6 5 6 5 7 7 6 8 6 7 7 7 9 8 10 10 9 7 8 8
8 11 8 9 4 8 10 15 20 22 21 16 15 13 15 11 13 14 8 7 7 3 6 11 7 6 5 5 7 8 9 7 6 8 10 8 9 10 9 10 10 11 13 11 13 12 11 11 12
14 14 13 7 7 6 16 13 17 17 20 17 18 14 15 15 16 16 9 10 10 10 6 6 6 9 12 9 7 7 10 9 9 12 12 13 13 13 12 11 12 13 15 16 17 11 12 14 13
15 16 16 7 11 5 12 13 18 20 16 17 15 15 11 13 17 17 15 10 12 12 15 9 6 3 7 10 8 6 6 6 10 12 15 14 14 17 18 18 17 19 18 20 11 11 15 17 17
18 13 14 14 14 10 5 10 10 15 9 16 14 14 11 13 14 15 15 15 15 14 15 12 11 9 7 5 5 5 5 6 6 9 11 11 13 15 17 21 18 19 20 14 10 13 14 20 22
18 15 11 13 14 6 7 7 7 7 13 13 17 19 12 12 10 11 12 15 16 14 13 13 12 10 7 7 7 7 5 8 3 6 6 6 10 11 15 17 16 19 17 14 14 15 18 22 19
18 18 14 10 15 11 12 10 1 7 12 13 15 14 14 9 6 7 9 10 11 11 11 13 13 14 12 10 9 10 6 4 5 3 4 6 5 8 9 10 10 8 11 14 13 12 13 17 19
25 24 20 12 18 13 11 8 7 11 8 13 10 12 12 8 8 7 9 6 6 7 8 10 11 11 10 10 8 8 7 8 6 6 7 7 8 8 8 7 6 5 6 8 8 10 11 10 13
20 29 27 21 13 13 11 9 14 18 11 11 11 8 1 8 2 7 11 12 7 3 4 6 7 7 8 7 8 8 7 7 9 8 10 10 8 7 6 6 6 6 6 7 8 9 10 10 10
28 28 26 21 13 17 14 15 17 17 16 14 14 7 8 2 5 7 10 11 12 8 5 4 8 9 9 9 8 8 8 8 7 9 10 10 10 9 9 6 6 6 7 7 8 9 9 9 11
36 31 25 17 20 15 16 19 19 19 17 14 15 8 7 3 3 8 11 10 6 8 7 5 8 10 10 10 9 8 6 8 8 10 11 10 9 10 10 9 7 7 6 5 5 7 10 12 13
32 31 25 18 17 22 17 15 14 20 15 18 7 10 7 4 5 8 9 3 6 4 6 6 6 8 9 9 8 8 9 11 12 13 14 14 12 10 10 11 10 8 9 9 11 11 11 12 13
35 32 22 18 24 21 20 16 15 20 20 21 20 14 10 3 6 5 4 4 3 4 6 8 8 8 8 8 8 8 10 10 12 13 16 19 17 14 11 12 12 13 14 15 15 16 16 15 14
35 27 24 26 27 24 24 12 10 13 13 15 19 12 9 9 7 5 4 7 3 4 5 6 8 8 7 8 10 9 10 11 12 12 14 14 15 14 12 13 14 15 16 18 18 17 17 17 18
31 31 31 28 28 27 22 12 4 10 4 7 9 6 10 5 13 30 6 7 4 5 5 7 7 7 7 7 7 8 8 10 12 14 14 10 4 8 11 12 14 16 17 17 18 20 21 22 21
27 24 32 35 30 36 31 15 14 11 6 2 4 2 7 15 18 16 12 11 8 8 6 8 10 10 10 11 9 9 10 12 13 13 13 10 8 11 13 14 16 18 20 22 23 22 21 21 20
Wind_Direction
69 59 36 35 51 43 33 30 33 37 26 13 41 97 80 87 97 113 87 58 60 57 67 69 63 69 72 79 90 91 86 89 99 108 109 113 118 105 92 79 68 62 70 85 83 82 84 75 59
58 59 31 41 53 24 26 34 37 52 51 352 25 72 89 78 85 100 85 74 73 66 65 69 66 72 72 73 79 84 85 86 90 95 90 84 78 78 78 84 83 72 66 70 83 71 66 55 52
65 50 47 51 49 47 51 30 13 24 47 41 35 35 58 63 73 82 98 91 89 78 71 76 79 78 80 81 82 82 77 78 76 74 74 72 64 61 69 70 71 67 60 50 49 69 52 36 42
54 62 43 49 57 49 39 45 45 40 34 43 23 323 60 85 133 96 111 107 107 93 78 81 87 88 93 87 84 80 69 67 72 69 68 69 70 63 58 65 71 69 57 47 41 34 29 26 26
75 54 44 42 57 35 29 44 43 49 34 44 30 345 162 163 214 154 159 128 127 99 89 84 93 89 96 84 81 84 75 70 67 70 68 64 67 70 64 58 58 60 57 54 45 39 33 37 21
69 50 41 40 44 28 23 42 32 21 27 28 26 351 4 151 219 135 159 230 222 156 96 94 92 94 106 101 95 77 71 71 73 59 53 49 58 69 63 53 46 36 34 40 45 37 30 36 32
40 49 38 37 46 24 18 24 28 27 17 15 29 23 336 72 106 170 152 201 223 178 132 118 113 107 105 116 106 72 59 60 54 42 42 35 29 30 41 52 47 38 23 11 28 33 27 35 33
41 34 35 48 35 34 24 14 31 10 21 19 23 31 323 2 111 159 158 203 195 163 143 154 149 129 119 124 102 85 73 57 41 33 25 25 9 36 41 58 46 23 4 343 345 3 4 13 24
22 32 42 42 43 41 32 38 15 11 11 17 22 8 342 336 51 134 142 222 212 182 159 172 175 168 161 153 144 129 100 80 48 5 336 4 330 316 55 44 3 356 326 329 331 335 344 346 357
42 31 39 39 57 37 26 31 34 22 11 7 31 21 5 354 24 34 6 291 284 230 214 189 175 177 183 192 194 174 161 155 170 5 353 352 326 283 234 63 39 292 325 313 309 318 320 324 330
150 64 24 34 43 34 42 46 40 15 7 16 11 25 20 10 13 28 337 264 245 253 231 206 186 179 187 199 216 224 217 234 308 2 359 6 17 284 182 140 27 344 314 300 303 305 311 312 315
147 93 55 37 8 26 32 38 29 19 21 33 21 16 18 30 15 9 20 232 219 217 212 198 196 195 190 210 216 229 250 259 303 329 353 1 39 90 171 214 197 301 300 302 304 309 317 316 307
210 181 94 18 25 28 33 32 32 19 20 11 9 29 28 24 18 17 39 187 194 204 209 195 196 198 191 221 234 237 255 290 294 292 323 338 5 22 22 222 223 286 290 305 294 303 311 296 301
239 209 138 311 350 23 19 21 28 30 26 57 32 50 40 14 13 359 33 89 68 356 216 217 206 192 190 218 231 238 256 269 258 298 325 318 324 333 323 333 267 282 277 288 279 280 311 323 317
237 202 178 218 299 357 24 17 25 29 22 40 27 9 33 25 11 5 36 91 247 283 281 197 219 212 189 196 249 258 254 271 305 332 322 313 302 306 291 278 273 262 252 250 263 276 292 311 355
229 188 197 210 278 9 33 33 28 25 22 22 24 20 23 30 32 25 17 71 58 178 141 186 200 228 232 229 230 268 280 284 304 290 289 304 295 285 272 273 272 264 258 252 259 278 294 301 309
222 176 182 230 250 75 42 19 15 16 28 17 35 22 15 20 35 32 44 57 58 71 73 174 205 246 248 225 220 233 264 279 281 283 287 281 276 293 272 273 275 271 266 265 268 266 291 292 294
227 199 191 222 250 227 29 17 7 351 354 8 33 22 16 12 18 28 38 68 70 73 78 89 110 240 242 183 199 203 238 277 279 282 275 270 264 273 281 282 266 269 267 276 283 290 288 290 289
241 210 206 210 237 280 344 357 359 338 7 38 33 23 15 2 11 21 32 49 65 79 82 86 78 74 96 148 109 43 356 300 283 281 266 271 284 277 289 288 269 262 262 271 264 291 293 290 290
225 221 208 184 196 200 242 301 359 340 24 26 37 14 9 353 355 8 27 37 50 59 67 78 88 90 77 52 55 58 43 15 25 27 336 292 298 302 301 300 289 262 250 242 278 285 294 295 304
203 212 205 199 203 223 256 285 233 292 349 6 25 21 15 359 337 329 15 33 48 49 52 69 71 69 57 41 37 50 28 325 345 358 294 301 317 319 310 295 295 247 241 254 278 288 302 313 312
195 209 210 206 218 214 243 290 248 277 294 340 358 12 1 26 277 290 341 351 28 49 43 43 49 56 49 49 35 32 17 352 355 339 334 2 11 15 4 351 334 324 295 288 295 300 307 320 330
202 219 214 210 219 219 252 255 247 254 282 327 308 342 321 56 130 305 312 302 305 321 349 21 31 31 29 11 9 359 359 354 2 338 333 333 346 353 359 357 353 333 323 316 317 321 319 327 325
195 212 222 225 258 225 247 252 248 275 284 298 288 278 286 61 36 329 355 327 275 275 287 353 2 2 3 347 338 322 317 318 323 321 328 332 322 316 320 331 335 337 332 335 331 327 333 337 346
207 217 220 229 259 255 259 273 278 274 272 293 320 250 254 265 265 303 331 347 310 258 276 315 342 344 355 344 330 319 311 300 294 291 292 300 308 308 304 300 299 299 296 295 304 319 332 336 339
218 222 234 238 228 243 237 272 278 266 271 302 308 258 283 341 312 289 310 358 359 298 296 307 324 334 349 352 342 338 318 303 297 285 275 274 274 284 300 301 298 295 296 303 308 309 314 319 326
216 225 231 241 246 245 247 241 274 283 273 299 264 248 243 276 292 315 263 299 353 308 305 318 321 336 347 340 326 317 312 319 320 308 291 277 272 264 266 279 289 298 302 303 302 305 308 308 308
218 220 224 237 250 256 252 250 302 295 309 300 223 208 287 273 298 274 252 266 281 282 294 334 327 340 339 332 327 324 324 326 329 335 332 305 279 266 275 285 294 299 300 300 301 301 301 300 303
225 222 225 235 248 266 261 227 288 288 323 316 199 297 345 307 307 309 262 249 258 272 314 307 317 333 330 323 325 327 324 323 337 348 350 343 313 290 292 296 297 296 293 293 294 292 294 296 298
207 215 228 236 255 257 258 221 274 279 243 264 304 12 344 302 335 348 239 222 234 259 263 286 296 309 311 306 299 303 310 316 324 329 331 327 305 281 272 282 288 288 292 296 296 294 297 299 301